Home   Weather   Coquitlam   Past weeks

Flag for Canada Past Weather in Coquitlam, British Columbia, Canada — Yesterday and Last 2 Weeks

Now
47 °F

Cool.


Feels Like: 45 °F
Forecast: 45 / 59 °F
Wind: 5 mph from Northeast

Location: P. Meadows Coastal Station

Current Time: Apr 24, 2017 at 10:25:08 am

Latest Report: Apr 24, 2017 at 9:00 am


Visibility: N/A

Pressure: 29.76 "Hg

Humidity: 84%

Dew Point: 43 °F

Location of CoquitlamLocation

Past Weather in Coquitlam — Graph

°F

Coquitlam Temperature Yesterday

Maximum temperature yesterday: 54 °F (at 3:00 pm)
Minimum temperature yesterday: 45 °F (at 9:00 am)
Average temperature yesterday: 48 °F

High & Low Weather Summary for the Past Weeks

 TemperatureHumidityPressure
High68 °F (Apr 21, 6:00 pm)100% (Apr 23, 4:00 am)30.43 "Hg (Apr 23, 4:00 am)
Low36 °F (Apr 16, 5:00 am)26% (Apr 21, 6:00 pm)29.63 "Hg (Apr 12, 11:00 pm)
Average49 °F76%29.99 "Hg
* Reported Apr 9 9:00 am — Apr 24 9:00 am, Coquitlam, Weather by CustomWeather, © 2017

Note: Actual official high and low records may vary slightly from our data, if they occured in-between our weather recording intervals... More about our weather records

Advertising

Coquitlam Weather History for the Previous 24 Hours

Scroll right to see more
 ConditionsComfort  
Time TempWeatherWind HumidityBarometerVisibility
9:00 am
Mon, Apr 24
47 °FCool.5 mph84%29.76 "HgN/A
8:00 am46 °FCool.3 mph90%29.75 "HgN/A
7:00 am45 °FCool.7 mph92%29.75 "HgN/A
6:00 am45 °FCool.6 mph93%29.75 "HgN/A
5:00 am45 °FCool.6 mph93%29.75 "HgN/A
4:00 am45 °FCool.5 mph96%29.76 "HgN/A
3:00 am45 °FCool.7 mph93%29.77 "HgN/A
2:00 am46 °FCool.3 mph95%29.78 "HgN/A
1:00 am47 °FCool.7 mph95%29.78 "HgN/A
12:00 am46 °FCool.5 mph100%29.78 "HgN/A
11:00 pm
Sun, Apr 23
48 °FCool.2 mph92%29.78 "HgN/A
10:00 pm48 °FCool.3 mph94%29.78 "HgN/A
9:00 pm49 °FCool.6 mph91%29.78 "HgN/A
8:00 pm48 °FCool.6 mph94%29.78 "HgN/A
7:00 pm49 °FCool.7 mph93%29.79 "HgN/A
6:00 pm50 °FCool.2 mph89%29.80 "HgN/A
5:00 pm50 °FCool.5 mph86%29.80 "HgN/A
4:00 pm52 °FCool.6 mph77%29.80 "HgN/A
3:00 pm54 °FCool.8 mph73%29.81 "HgN/A
2:00 pm54 °FCool.12 mph69%29.83 "HgN/A
1:00 pm52 °FCool.12 mph72%29.86 "HgN/A
12:00 pm49 °FCool.12 mph79%29.88 "HgN/A
11:00 am47 °FCool.10 mph88%29.89 "HgN/A
10:00 am45 °FCool.9 mph90%29.89 "HgN/A
Weather by CustomWeather, © 2017

See weather overviewHow to use our weather pages